Find Starlink 33859

NORAD ID: 63640 Int'l Des: 2025-083 Owner: SPXS Country: US Constellation: starlink operational
LEOCIRCULAR

当前视图

正在加载3D地球...

About Starlink 33859

Starlink 33859 (NORAD 63640) is a starlink constellation satellite (v2 mini) launched Apr 25, 2025 by SPXS of US. It operates in LEO, CIRCULAR orbit with a mass of 575.00 kg.

即将过境

Passes for default location (London). Set your location on the main map for personalized predictions.

高度历史

Loading altitude history...

两行轨道根数

1 63640U 25083G 26263.94136756 .00007586 00000-0 28489-3 0 9997
2 63640 43.0042 342.9161 0001771 272.0755 87.9894 15.27582189 79924
Epoch: Sep 20, 2026 • Age: 11 hours

当前状态

高度 484.6 km
远地点 / 近地点 N/A
速度 7.63 km/s
星下点 30.77°N, 127.43°W
发射日期 Apr 25, 2025
运行时间 1.4 years
类型 internet

技术详情

分类 Payload
质量 575.00 kg
干质量 530.00 kg
长度 0.30 m
跨度 29.00 m
形状 ? Box + pan
制造商 SPXS
平台类型 Starlink V2MO
阶段状态 In Orbit
所有者/国家 SPXS/US

Most Searched